Regional Weather Roundup
Issued by NWS

Home | Current Version | Previous Version | Graphics & Text | Print | Product List | Glossary On
Versions: 1 2 3 4 5 6 7 8 9 10 11 12 13 14 15 16 17 18 19 20 21 22 23 24 25 26 27 28 29 30 31 32 33 34 35 36 37 38 39 40 41 42 43 44 45 46 47 48 49 50
979
ASUS43 KOAX 111110
RWRNE

WEATHER ROUNDUP FOR NEBRASKA
NATIONAL WEATHER SERVICE OMAHA NE
500 AM CST THU FEB 11 2016

NOTES: SATELLITE DATA IS BEING USED TO AUGMENT CLOUD COVER ABOVE
       12000 FEET.
       "FAIR" INDICATES FEW OR NO CLOUDS BELOW 12,000 FEET WITH NO
       SIGNIFICANT WEATHER AND/OR OBSTRUCTIONS TO VISIBILITY.

  * THESE STATIONS DO NOT REPORT WEATHER SUCH AS RAIN...SNOW OR FOG.

NEZ001>004-019>022-054>056-111200-
NEBRASKA PANHANDLE

CITY           SKY/WX    TMP DP  RH WIND       PRES   REMARKS
SCOTTSBLUFF    CLOUDY    31  24  75 N6        30.09S WCI  25
ALLIANCE       CLOUDY    24  20  84 CALM      30.06F
CHADRON        CLOUDY    25  22  88 W6        30.05F WCI  18
KIMBALL        CLOUDY    34  23  63 W15       30.11S WCI  25
SIDNEY         CLOUDY    33  24  69 NW13      30.09F WCI  24
$$

NEZ057>060-069>072-079>082-111200-
SOUTHWEST NEBRASKA

CITY           SKY/WX    TMP DP  RH WIND       PRES   REMARKS
NORTH PLATTE   CLOUDY    26  23  88 NE9       30.14F WCI  17
IMPERIAL       CLOUDY    27  23  85 CALM      30.13F
LEXINGTON      CLOUDY    30  27  88 NW3       30.18R
MCCOOK         CLOUDY    27  24  89 S3        30.16S
OGALLALA       CLOUDY    24  22  93 CALM      30.11F
$$

NEZ005>010-023>029-035>040-094-111200-
NORTH CENTRAL NEBRASKA

CITY           SKY/WX    TMP DP  RH WIND       PRES   REMARKS
VALENTINE      CLOUDY    28  26  92 S5        30.11F WCI  23
AINSWORTH      CLOUDY    28  24  86 CALM      30.11F
BROKEN BOW     CLOUDY    30  27  88 N8        30.14S WCI  22
O`NEILL        CLOUDY    25  24  95 SE3       30.17F FOG
ORD            CLOUDY    28  25  88 E5        30.17F WCI  23
THEDFORD       CLOUDY    31  30  98 S5        30.12F FOG     WCI  26
$$

NEZ041-046>049-061>064-073>077-083>087-111200-
SOUTH CENTRAL NEBRASKA

CITY           SKY/WX    TMP DP  RH WIND       PRES   REMARKS
GRAND ISLAND   CLOUDY    26  22  84 N13       30.21S WCI  15
AURORA         CLOUDY    25  23  93 N7        30.21R WCI  17
HASTINGS       CLOUDY    27  23  85 N13       30.20R WCI  16
HEBRON         CLOUDY    24  22  89 N7        30.22R WCI  16
HOLDREGE       CLOUDY    29  26  90 NE9       30.16F WCI  20
KEARNEY *      CLOUDY    28  25  86 N8        30.18S WCI  20
YORK           CLOUDY    23  19  86 N12       30.23R WCI  12
$$

NEZ011>018-030>034-042>045-111200-
NORTHEAST NEBRASKA

CITY           SKY/WX    TMP DP  RH WIND       PRES   REMARKS
NORFOLK        CLOUDY    19  15  84 E5        30.23R WCI  12
ALBION         CLOUDY    23  19  86 E5        30.21S WCI  17
BLAIR          CLOUDY    15  10  80 NE8       30.25R WCI   5
COLUMBUS *     CLOUDY    19  10  68 NE6       30.25R WCI  11
FREMONT        CLOUDY    17  12  80 NE3       30.27R
TEKAMAH        CLOUDY    16   6  65 NE6       30.30R WCI   7
WAYNE          CLOUDY    17  12  82 E5        30.26S WCI  10
$$

NEZ050>053-065>068-078-088>093-111200-
SOUTHEAST NEBRASKA

CITY           SKY/WX    TMP DP  RH WIND       PRES   REMARKS
LINCOLN        CLOUDY    16  13  88 N8        30.27R WCI   5
OMAHA EPPLEY   PTCLDY    15   6  67 N6        30.28R WCI   6
BEATRICE       CLOUDY    22  20  93 NE7       30.23R WCI  13
FALLS CITY     CLOUDY    22  18  85 N8        30.22R WCI  12
NEBRASKA CITY  CLOUDY    20  18  90 N12       30.23R WCI   9
PLATTSMOUTH    CLOUDY    16  12  85 NE7       30.24R WCI   6
$$

NEZ044-045-051>053-067-111200-
OMAHA AREA

CITY           SKY/WX    TMP DP  RH WIND       PRES   REMARKS
OMAHA EPPLEY   PTCLDY    15   6  67 N6        30.28R WCI   6
BLAIR          CLOUDY    15  10  80 NE8       30.25R WCI   5
FREMONT        CLOUDY    17  12  80 NE3       30.27R
MILLARD        PTCLDY    17  11  76 CALM      30.28R
OFFUTT AFB     CLOUDY    15   9  77 NE10      30.26R WCI   3
PLATTSMOUTH    CLOUDY    16  12  85 NE7       30.24R WCI   6
WAHOO          CLOUDY    19  15  84 NE8       30.26R WCI   9
$$




USA.gov is the U.S. government's official web portal to all federal, state and local government web resources and services.